User: anonymous   Login
Location: ???????
(54.9996°N, 37.9529°E)
Time: 16:24:16
(UTC+00:00)
Language:

Cosmos 1980 - Orbit

View from above orbital plane
View from above orbital plane
View from above satellite
View from above satellite

Ground track
Ground track

The orbit data is extracted from the following two-line orbital elements,

1 19649U 88102A   24165.92400483  .00000139  00000-0  96316-4 0  9998
2 19649  71.0008 105.2341 0004666   8.0350 352.0846 14.14960128835483
Epoch (UTC): 13 June 2024 22:10:34
Eccentricity: 0.0004666
inclination: 71.0008°
perigee height: 839 km
apogee height: 846 km
right ascension of ascending node: 105.2341°
argument of perigee: 8.0350°
revolutions per day: 14.14960128
mean anomaly at epoch: 352.0846°
orbit number at epoch: 83548

The dashed part of the orbit path shows where the satellite is in the earth's shadow,  

DLR